User: anonymous   Login
Location: Unspecified
(0.0000°N, 0.0000°E)
Time: 19:18:09
(UTC+00:00)
Language:

NOSS 3-2 (C) - Orbit

View from above orbital plane
View from above orbital plane
View from above satellite
View from above satellite

Ground track
Ground track

The orbit data is extracted from the following two-line orbital elements,

1 28097U 03054C   19067.18620381 0.00000000  00000-0  00000-0 0    03
2 28097  63.4303 151.6991 0361000 358.0949   1.9051 13.40754698    00
Epoch (UTC): 08 March 2019 04:28:08
Eccentricity: 0.0361000
inclination: 63.4303°
perigee height: 836 km
apogee height: 1376 km
right ascension of ascending node: 151.6991°
argument of perigee: 358.0949°
revolutions per day: 13.40754698
mean anomaly at epoch: 1.9051°
orbit number at epoch: 0

The dashed part of the orbit path shows where the satellite is in the earth's shadow,  

DLR